Regional Weather Roundup
Issued by NWS Newport/Morehead, NC

Current Version | Previous Version | Graphics & Text | Print | Product List | Glossary Off
Versions: 1 2 3 4 5 6 7 8 9 10 11 12 13 14 15 16 17 18 19 20 21 22 23 24 25 26 27 28 29 30 31 32 33 34 35 36 37 38 39 40 41 42 43 44 45 46 47 48 49 50

000
ASUS42 KMHX 271610
RWRMHX
WEATHER ROUNDUP FOR EASTERN NORTH CAROLINA
NATIONAL WEATHER SERVICE NEWPORT/MOREHEAD CITY NC
1100 AM EST TUE JAN 27 2015

NOTE: "FAIR" INDICATES FEW OR NO CLOUDS BELOW 12,000 FEET
WITH NO SIGNIFICANT WEATHER AND/OR OBSTRUCTIONS TO VISIBILITY

NCZ015>017-031-032-045>047-102-103-271700-
NORTH COAST

CITY           SKY/WX    TMP DP  RH WIND       PRES   REMARKS
EDENTON        LGT SNOW  32  29  90 N13       29.80R
ELIZABETH CITY CLOUDY    33  28  81 NW12      29.78S
KITTY HAWK     CLOUDY    33  32  96 NW9G18    29.74S
MANTEO         CLOUDY    32  30  93 NW9G17    29.77R

$$

NCZ045>047-081-094-103-104-271700-
CENTRAL COAST

CITY           SKY/WX    TMP DP  RH WIND       PRES   REMARKS
FRISCO         LGT SNOW  34  31  88 NW12G21   29.75S FOG
SWANQUARTER    NOT AVBL

$$

NCZ095-097-098-100-101-271700-
SOUTHERN COAST

CITY           SKY/WX    TMP DP  RH WIND       PRES   REMARKS
BEAUFORT       CLOUDY    38  30  73 NW22      29.78S
CEDAR ISLAND   NOT AVBL
JACKSONVILLE   CLOUDY    41  28  60 N16G25    29.80S
PINEY ISLAND     N/A    N/A N/A N/A MISG      29.77S
WILMINGTON     CLOUDY    38  34  85 NW14      29.81F


$$

NCZ011>013-027>030-043-044-078>080-089-090>093-098-271700-
COASTAL PLAIN

CITY           SKY/WX    TMP DP  RH WIND       PRES   REMARKS
AHOSKIE        LGT SNOW  31  27  84 N6        29.83S
CLINTON        CLOUDY    37  30  75 N7        29.84S
ELIZABETHTOWN  CLOUDY    40  27  59 N5        29.83S
GOLDSBORO      FLURRIES  36  35  98 NW7       29.81S
GREENVILLE     PTSUNNY   34  30  86 N8        29.85S
HAVELOCK       CLOUDY    38  27  64 N18G24    29.80S
KENANSVILLE    CLOUDY    36  31  84 NW8       29.84R
KINSTON        CLOUDY    37  28  70 N15       29.82S
NEW BERN       CLOUDY    38  27  64 N10       29.81S
RICHLANDS      CLOUDY    39  28  65 N9        29.81F
ROCKY MOUNT    CLOUDY    36  29  75 N8        29.84R
WASHINGTON     PTSUNNY   33  27  78 N16G23    29.82R
WHITEVILLE     CLOUDY    40  26  57 NW5       29.82S

$$

AMZ130-135-150-152-154-156-158-170-250-252-270-ANZ085-086-088-633-658-670-271700-
MARINE OBSERVATIONS

STATION/POSITION TIME  TEMP    WIND        PRES    WAVE   SWELL
                       AIR SEA DIR/SP/G            HT/PER HT/PER
                 (UTC) (F)     (DEG/KT/KT) (MB)    (FT/S) (FT/S)
CHESAPEAKE LIGHT 1500   33     360/ 24/ 27 1007.4
64 E VA BEACH    1600   37 51  340/ 21/ 27 1005.2   13/14  10/14
DUCK             1600   33 43  330/ 18/ 22 1006.5
2 E DUCK         1600      44                N/A    10/13   7/13
10 NE DUCK       1600      45                N/A    10/12   7/12
OREGON INLET     1600   33 45  320/ 13/ 20 1007.4
13E OREGON INLT  1500      46                N/A    11/13   8/13
HATTERAS CG      1600   34 48  340/ 18/ 22 1007.7
DIAMOND BUOY     1600   39 69  330/ 21/ 27 1006.1    7/12   5/12
17 S OCRACOKE    NOT AVBL
CAPE LOOKOUT     1500   37     340/ 19/ 21 1007.7
BEAUFORT LAB     1600   37 49  350/ 14/ 19 1007.3
27 SE WRIGHTSVLE NOT AVBL
5 SE WRIGHTSVLE  1500   40 53  340/ 12/ 16 1009.1
225 S CAPE HAT   1455   60 71  300/ 27/ 37 1004.8   14/ 9   5/19
41 SE CHARLESTON 1600   44 68  300/ 14/ 21 1010.9    5/ 7   2/16

$$


USA.gov is the U.S. government's official web portal to all federal, state and local government web resources and services.